Climatologie pour Saint-Brevin les Pins
Jour • Résumé pour mai 14, 2017 Système :  Métrique    Anglais   Mixte
« - 1 jour
+ 1 jour »
Jour Semaine Mois Année Personnalisé
  Maximum : Minimum : Moyenne :
Température sous abri : 17.7 °C 12.7 °C 15.1 °C
Point de rosée : 13.7 °C 9.4 °C 12.2 °C
Humidité : 92 % 66 % 83 %
Vitesse du vent : 20.9 km/h 0.0 km/h 7.7 km/h
Rafale : 32.2 km/h - -
Direction :- - WSW
Pression : 1026.0 hPa 1015.8 hPa -
Précipitations : 0.3 mm    
Historical Graphs
 
 
Tableau de données pour mai 14, 2017
Heure Tempé Pt rosée Pression Vent Vitesse Rafale Humidité Taux pluie (/hr) Soleil
00:00 14.9 °C 12.3 °C 1015.8 hPa SW 8.0 km/h 19.3 km/h 84 % 0.0 mm 0 W/m2
00:10 14.9 °C 12.4 °C 1015.8 hPa SSW 11.3 km/h 24.1 km/h 85 % 0.0 mm 0 W/m2
00:15 14.9 °C 12.6 °C 1015.8 hPa South 8.0 km/h 24.1 km/h 86 % 0.0 mm 0 W/m2
00:20 14.7 °C 12.4 °C 1016.1 hPa South 14.5 km/h 24.1 km/h 86 % 0.0 mm 0 W/m2
00:25 14.4 °C 12.3 °C 1016.1 hPa SSW 11.3 km/h 19.3 km/h 87 % 0.0 mm 0 W/m2
00:30 14.3 °C 12.1 °C 1015.8 hPa South 11.3 km/h 19.3 km/h 87 % 0.0 mm 0 W/m2
00:35 14.3 °C 12.1 °C 1016.1 hPa SW 4.8 km/h 20.9 km/h 87 % 0.0 mm 0 W/m2
00:40 14.3 °C 12.1 °C 1016.1 hPa South 3.2 km/h 24.1 km/h 87 % 0.0 mm 0 W/m2
00:45 14.2 °C 12.0 °C 1016.1 hPa SSW 4.8 km/h 24.1 km/h 87 % 0.0 mm 0 W/m2
00:50 14.1 °C 12.0 °C 1015.8 hPa South 8.0 km/h 25.7 km/h 87 % 0.0 mm 0 W/m2
00:55 14.1 °C 12.0 °C 1016.1 hPa SSW 14.5 km/h 25.7 km/h 87 % 0.0 mm 0 W/m2
01:00 14.2 °C 12.1 °C 1016.1 hPa South 12.9 km/h 25.7 km/h 87 % 0.0 mm 0 W/m2
01:10 14.3 °C 12.2 °C 1016.1 hPa SSW 14.5 km/h 20.9 km/h 87 % 0.0 mm 0 W/m2
01:15 14.4 °C 12.1 °C 1016.1 hPa SW 20.9 km/h 25.7 km/h 86 % 0.0 mm 0 W/m2
01:20 14.6 °C 12.2 °C 1016.1 hPa SSW 14.5 km/h 25.7 km/h 86 % 0.0 mm 0 W/m2
01:30 14.7 °C 12.2 °C 1016.1 hPa SSW 9.7 km/h 20.9 km/h 85 % 0.0 mm 0 W/m2
01:35 14.7 °C 12.2 °C 1016.1 hPa SSW 11.3 km/h 20.9 km/h 85 % 0.0 mm 0 W/m2
01:40 14.7 °C 12.2 °C 1016.1 hPa WNW 4.8 km/h 29.0 km/h 85 % 0.3 mm 0 W/m2
01:45 14.8 °C 12.1 °C 1016.5 hPa SW 3.2 km/h 29.0 km/h 84 % 0.3 mm 0 W/m2
01:50 14.8 °C 12.1 °C 1016.5 hPa SW 9.7 km/h 27.4 km/h 84 % 0.3 mm 0 W/m2
01:55 14.8 °C 12.0 °C 1016.5 hPa SW 8.0 km/h 25.7 km/h 83 % 0.3 mm 0 W/m2
02:00 14.9 °C 12.0 °C 1016.5 hPa SW 11.3 km/h 25.7 km/h 83 % 0.3 mm 0 W/m2
02:05 14.9 °C 12.2 °C 1016.5 hPa SW 4.8 km/h 27.4 km/h 84 % 0.3 mm 0 W/m2
02:10 14.9 °C 12.2 °C 1016.5 hPa SW 20.9 km/h 32.2 km/h 84 % 0.3 mm 0 W/m2
02:15 14.9 °C 12.4 °C 1016.5 hPa WSW 14.5 km/h 32.2 km/h 85 % 0.3 mm 0 W/m2
02:20 14.8 °C 12.3 °C 1016.5 hPa SSW 19.3 km/h 25.7 km/h 85 % 0.3 mm 0 W/m2
02:25 14.8 °C 12.3 °C 1016.5 hPa WSW 6.4 km/h 25.7 km/h 85 % 0.3 mm 0 W/m2
02:30 14.8 °C 12.3 °C 1016.5 hPa SSW 16.1 km/h 25.7 km/h 85 % 0.3 mm 0 W/m2
02:35 14.8 °C 12.5 °C 1016.5 hPa SW 14.5 km/h 24.1 km/h 86 % 0.3 mm 0 W/m2
02:40 14.8 °C 12.5 °C 1016.8 hPa South 9.7 km/h 24.1 km/h 86 % 0.0 mm 0 W/m2
02:45 14.7 °C 12.6 °C 1016.8 hPa South 8.0 km/h 22.5 km/h 87 % 0.0 mm 0 W/m2
02:55 14.7 °C 12.5 °C 1016.8 hPa WSW 16.1 km/h 25.7 km/h 87 % 0.0 mm 0 W/m2
03:00 14.6 °C 12.5 °C 1016.8 hPa West 17.7 km/h 25.7 km/h 87 % 0.0 mm 0 W/m2
03:05 14.6 °C 12.4 °C 1016.8 hPa WSW 14.5 km/h 22.5 km/h 87 % 0.0 mm 0 W/m2
03:10 14.6 °C 12.4 °C 1016.8 hPa WSW 12.9 km/h 20.9 km/h 87 % 0.0 mm 0 W/m2
03:15 14.6 °C 12.6 °C 1016.8 hPa SW 8.0 km/h 20.9 km/h 88 % 0.0 mm 0 W/m2
03:25 14.4 °C 12.5 °C 1017.2 hPa West 12.9 km/h 19.3 km/h 88 % 0.0 mm 0 W/m2
03:30 14.4 °C 12.5 °C 1017.2 hPa SSW 6.4 km/h 19.3 km/h 88 % 0.0 mm 0 W/m2
03:35 14.4 °C 12.7 °C 1017.2 hPa SW 1.6 km/h 19.3 km/h 89 % 0.0 mm 0 W/m2
03:40 14.5 °C 12.7 °C 1016.8 hPa WSW 9.7 km/h 20.9 km/h 89 % 0.0 mm 0 W/m2
03:45 14.6 °C 12.6 °C 1016.8 hPa SW 8.0 km/h 20.9 km/h 88 % 0.0 mm 0 W/m2
03:50 14.6 °C 12.6 °C 1016.8 hPa SW 17.7 km/h 17.7 km/h 88 % 0.0 mm 0 W/m2
03:55 14.7 °C 12.5 °C 1016.8 hPa SW 17.7 km/h 22.5 km/h 87 % 0.0 mm 0 W/m2
04:00 14.7 °C 12.5 °C 1016.8 hPa SSW 8.0 km/h 22.5 km/h 87 % 0.0 mm 0 W/m2
04:05 14.7 °C 12.5 °C 1017.2 hPa SW 11.3 km/h 22.5 km/h 87 % 0.0 mm 0 W/m2
04:10 14.7 °C 12.5 °C 1017.2 hPa WSW 3.2 km/h 24.1 km/h 87 % 0.0 mm 0 W/m2
04:15 14.6 °C 12.4 °C 1017.2 hPa West 14.5 km/h 24.1 km/h 87 % 0.0 mm 0 W/m2
04:20 14.4 °C 12.3 °C 1017.2 hPa SW 19.3 km/h 24.1 km/h 87 % 0.0 mm 0 W/m2
04:25 14.3 °C 12.3 °C 1017.2 hPa SW 16.1 km/h 24.1 km/h 88 % 0.0 mm 0 W/m2
04:30 14.2 °C 12.2 °C 1017.2 hPa WSW 14.5 km/h 24.1 km/h 88 % 0.0 mm 0 W/m2
04:35 14.1 °C 12.3 °C 1017.2 hPa West 6.4 km/h 22.5 km/h 89 % 0.0 mm 0 W/m2
04:40 14.1 °C 12.3 °C 1017.2 hPa West 11.3 km/h 22.5 km/h 89 % 0.0 mm 0 W/m2
04:45 14.0 °C 12.4 °C 1017.5 hPa SW 11.3 km/h 22.5 km/h 90 % 0.0 mm 0 W/m2
04:50 13.9 °C 12.3 °C 1017.5 hPa WSW 16.1 km/h 24.1 km/h 90 % 0.0 mm 0 W/m2
04:55 13.9 °C 12.5 °C 1017.5 hPa WSW 16.1 km/h 24.1 km/h 91 % 0.0 mm 0 W/m2
05:00 13.9 °C 12.4 °C 1017.5 hPa West 9.7 km/h 20.9 km/h 91 % 0.0 mm 0 W/m2
05:10 13.9 °C 12.4 °C 1017.5 hPa West 4.8 km/h 22.5 km/h 91 % 0.0 mm 0 W/m2
05:15 13.9 °C 12.4 °C 1017.5 hPa WNW 12.9 km/h 20.9 km/h 91 % 0.0 mm 0 W/m2
05:20 13.8 °C 12.4 °C 1017.5 hPa West 3.2 km/h 24.1 km/h 91 % 0.0 mm 0 W/m2
05:25 13.8 °C 12.3 °C 1017.8 hPa West 8.0 km/h 24.1 km/h 91 % 0.0 mm 0 W/m2
05:30 13.7 °C 12.2 °C 1017.8 hPa West 3.2 km/h 22.5 km/h 91 % 0.0 mm 0 W/m2
05:35 13.7 °C 12.2 °C 1017.8 hPa WSW 20.9 km/h 20.9 km/h 91 % 0.0 mm 0 W/m2
05:40 13.7 °C 12.4 °C 1017.8 hPa SW 8.0 km/h 20.9 km/h 92 % 0.0 mm 0 W/m2
05:45 13.7 °C 12.4 °C 1018.2 hPa West 3.2 km/h 20.9 km/h 92 % 0.0 mm 0 W/m2
05:55 13.7 °C 12.4 °C 1018.2 hPa WSW 3.2 km/h 20.9 km/h 92 % 0.0 mm 0 W/m2
06:00 13.7 °C 12.4 °C 1018.2 hPa WNW 14.5 km/h 22.5 km/h 92 % 0.0 mm 0 W/m2
06:05 13.6 °C 12.3 °C 1018.2 hPa West 4.8 km/h 22.5 km/h 92 % 0.0 mm 0 W/m2
06:10 13.5 °C 12.2 °C 1018.2 hPa West 8.0 km/h 20.9 km/h 92 % 0.0 mm 0 W/m2
06:15 13.4 °C 12.2 °C 1018.2 hPa WSW 8.0 km/h 19.3 km/h 92 % 0.0 mm 0 W/m2
06:20 13.4 °C 12.1 °C 1018.5 hPa West 8.0 km/h 19.3 km/h 92 % 0.0 mm 0 W/m2
06:25 13.3 °C 12.1 °C 1018.5 hPa SW 6.4 km/h 24.1 km/h 92 % 0.0 mm 0 W/m2
06:30 13.3 °C 12.1 °C 1018.5 hPa West 6.4 km/h 24.1 km/h 92 % 0.0 mm 0 W/m2
06:35 13.3 °C 12.1 °C 1018.5 hPa West 8.0 km/h 17.7 km/h 92 % 0.0 mm 0 W/m2
06:40 13.3 °C 12.1 °C 1018.5 hPa West 3.2 km/h 19.3 km/h 92 % 0.0 mm 5 W/m2
06:45 13.3 °C 12.0 °C 1018.5 hPa West 8.0 km/h 19.3 km/h 92 % 0.0 mm 7 W/m2
06:50 13.2 °C 11.9 °C 1018.8 hPa WNW 8.0 km/h 17.7 km/h 92 % 0.0 mm 11 W/m2
06:55 13.2 °C 11.9 °C 1018.8 hPa West 11.3 km/h 19.3 km/h 92 % 0.0 mm 14 W/m2
07:00 13.2 °C 11.9 °C 1018.8 hPa WSW 8.0 km/h 19.3 km/h 92 % 0.0 mm 18 W/m2
07:05 13.2 °C 11.9 °C 1018.8 hPa WSW 4.8 km/h 16.1 km/h 92 % 0.0 mm 21 W/m2
07:10 13.1 °C 11.8 °C 1018.8 hPa West 3.2 km/h 16.1 km/h 92 % 0.0 mm 25 W/m2
07:15 13.2 °C 11.9 °C 1018.8 hPa West 6.4 km/h 14.5 km/h 92 % 0.0 mm 28 W/m2
07:20 13.2 °C 11.9 °C 1019.2 hPa West 6.4 km/h 16.1 km/h 92 % 0.0 mm 30 W/m2
07:25 13.3 °C 12.0 °C 1019.2 hPa West 8.0 km/h 16.1 km/h 92 % 0.0 mm 33 W/m2
07:30 13.3 °C 12.0 °C 1019.2 hPa SW 3.2 km/h 16.1 km/h 92 % 0.0 mm 37 W/m2
07:35 13.3 °C 12.1 °C 1019.2 hPa West 8.0 km/h 16.1 km/h 92 % 0.0 mm 42 W/m2
07:40 13.3 °C 12.1 °C 1019.2 hPa WNW 3.2 km/h 16.1 km/h 92 % 0.0 mm 53 W/m2
07:45 13.3 °C 12.1 °C 1019.5 hPa West 4.8 km/h 16.1 km/h 92 % 0.0 mm 56 W/m2
07:50 13.4 °C 12.1 °C 1019.5 hPa West 3.2 km/h 16.1 km/h 92 % 0.0 mm 63 W/m2
07:55 13.4 °C 12.2 °C 1019.5 hPa West 17.7 km/h 17.7 km/h 92 % 0.0 mm 63 W/m2
08:00 13.6 °C 12.1 °C 1019.5 hPa WSW 8.0 km/h 17.7 km/h 91 % 0.0 mm 63 W/m2
08:10 13.7 °C 12.1 °C 1019.5 hPa SW 6.4 km/h 22.5 km/h 90 % 0.0 mm 109 W/m2
08:15 13.8 °C 12.2 °C 1019.9 hPa West 11.3 km/h 22.5 km/h 90 % 0.0 mm 116 W/m2
08:20 13.9 °C 12.1 °C 1019.9 hPa Calm   14.5 km/h 89 % 0.0 mm 232 W/m2
08:25 14.0 °C 12.2 °C 1019.9 hPa West 6.4 km/h 14.5 km/h 89 % 0.0 mm 81 W/m2
08:30 14.2 °C 12.4 °C 1019.9 hPa West 9.7 km/h 14.5 km/h 89 % 0.0 mm 251 W/m2
08:35 14.3 °C 12.5 °C 1019.9 hPa WSW 1.6 km/h 14.5 km/h 89 % 0.0 mm 220 W/m2
08:40 14.4 °C 12.3 °C 1020.2 hPa WNW 11.3 km/h 17.7 km/h 87 % 0.0 mm 308 W/m2
08:45 14.4 °C 12.1 °C 1020.2 hPa WNW 6.4 km/h 17.7 km/h 86 % 0.0 mm 308 W/m2
08:55 14.8 °C 12.5 °C 1020.5 hPa WNW 8.0 km/h 16.1 km/h 86 % 0.0 mm 357 W/m2
09:00 15.0 °C 12.5 °C 1020.5 hPa West 6.4 km/h 17.7 km/h 85 % 0.0 mm 369 W/m2
09:05 14.8 °C 12.3 °C 1020.5 hPa West 9.7 km/h 17.7 km/h 85 % 0.0 mm 339 W/m2
09:10 14.8 °C 12.5 °C 1020.9 hPa WNW 4.8 km/h 16.1 km/h 86 % 0.0 mm 297 W/m2
09:15 15.1 °C 12.9 °C 1020.9 hPa NW 6.4 km/h 16.1 km/h 87 % 0.0 mm 487 W/m2
09:20 14.9 °C 12.4 °C 1020.9 hPa West 6.4 km/h 16.1 km/h 85 % 0.0 mm 109 W/m2
09:25 14.4 °C 12.0 °C 1020.9 hPa West 8.0 km/h 16.1 km/h 85 % 0.0 mm 397 W/m2
09:30 14.7 °C 12.4 °C 1020.9 hPa WSW 4.8 km/h 16.1 km/h 86 % 0.0 mm 485 W/m2
09:40 15.2 °C 12.5 °C 1020.9 hPa West 8.0 km/h 19.3 km/h 84 % 0.0 mm 262 W/m2
09:45 14.8 °C 12.2 °C 1020.9 hPa West 3.2 km/h 19.3 km/h 84 % 0.0 mm 176 W/m2
09:50 15.2 °C 12.5 °C 1021.2 hPa WNW 8.0 km/h 17.7 km/h 84 % 0.0 mm 411 W/m2
09:55 15.4 °C 12.5 °C 1021.2 hPa West 9.7 km/h 17.7 km/h 83 % 0.0 mm 568 W/m2
10:00 15.7 °C 12.8 °C 1021.2 hPa WSW 8.0 km/h 17.7 km/h 83 % 0.0 mm 631 W/m2
10:05 15.7 °C 12.6 °C 1021.6 hPa West 9.7 km/h 17.7 km/h 82 % 0.0 mm 550 W/m2
10:10 15.6 °C 12.7 °C 1021.6 hPa WNW 6.4 km/h 17.7 km/h 83 % 0.0 mm 585 W/m2
10:15 15.7 °C 12.6 °C 1021.6 hPa WSW 6.4 km/h 12.9 km/h 82 % 0.0 mm 619 W/m2
10:20 15.7 °C 12.7 °C 1021.6 hPa West 11.3 km/h 14.5 km/h 82 % 0.0 mm 682 W/m2
10:25 15.6 °C 12.9 °C 1021.6 hPa SW 6.4 km/h 16.1 km/h 84 % 0.0 mm 613 W/m2
10:30 15.6 °C 12.9 °C 1021.9 hPa WSW 6.4 km/h 16.1 km/h 84 % 0.0 mm 633 W/m2
10:35 15.7 °C 12.4 °C 1021.9 hPa SW 12.9 km/h 16.1 km/h 81 % 0.0 mm 167 W/m2
10:40 15.8 °C 13.1 °C 1021.9 hPa WNW 4.8 km/h 16.1 km/h 84 % 0.0 mm 650 W/m2
10:45 15.8 °C 12.8 °C 1021.9 hPa WSW 8.0 km/h 19.3 km/h 82 % 0.0 mm 661 W/m2
10:50 16.3 °C 13.4 °C 1022.2 hPa WSW 8.0 km/h 19.3 km/h 83 % 0.0 mm 680 W/m2
10:55 16.3 °C 12.6 °C 1022.2 hPa West 4.8 km/h 17.7 km/h 79 % 0.0 mm 700 W/m2
11:00 15.9 °C 12.3 °C 1022.2 hPa WSW 16.1 km/h 17.7 km/h 79 % 0.0 mm 679 W/m2
11:10 16.5 °C 13.0 °C 1022.6 hPa WSW 12.9 km/h 19.3 km/h 80 % 0.0 mm 682 W/m2
11:15 16.4 °C 12.4 °C 1022.6 hPa WSW 11.3 km/h 20.9 km/h 77 % 0.0 mm 722 W/m2
11:20 16.0 °C 12.2 °C 1022.6 hPa WNW 12.9 km/h 20.9 km/h 78 % 0.0 mm 740 W/m2
11:25 16.1 °C 12.7 °C 1022.6 hPa West 9.7 km/h 17.7 km/h 80 % 0.0 mm 712 W/m2
11:30 16.1 °C 12.3 °C 1022.6 hPa West 11.3 km/h 17.7 km/h 78 % 0.0 mm 775 W/m2
11:35 16.5 °C 12.8 °C 1022.6 hPa West 8.0 km/h 17.7 km/h 79 % 0.0 mm 777 W/m2
11:40 16.7 °C 13.0 °C 1022.9 hPa West 6.4 km/h 17.7 km/h 79 % 0.0 mm 573 W/m2
11:45 16.6 °C 13.1 °C 1022.9 hPa NW 4.8 km/h 19.3 km/h 80 % 0.0 mm 737 W/m2
11:55 17.0 °C 12.7 °C 1022.9 hPa SW 1.6 km/h 16.1 km/h 76 % 0.0 mm 812 W/m2
12:00 16.7 °C 12.6 °C 1022.9 hPa SW 9.7 km/h 16.1 km/h 77 % 0.0 mm 849 W/m2
12:05 16.6 °C 13.0 °C 1022.9 hPa WSW 11.3 km/h 19.3 km/h 79 % 0.0 mm 673 W/m2
12:10 16.4 °C 12.8 °C 1022.9 hPa WNW 8.0 km/h 19.3 km/h 79 % 0.0 mm 810 W/m2
12:15 16.9 °C 13.4 °C 1023.2 hPa SW 9.7 km/h 17.7 km/h 80 % 0.0 mm 812 W/m2
12:20 16.8 °C 12.5 °C 1023.2 hPa WSW 9.7 km/h 17.7 km/h 76 % 0.0 mm 828 W/m2
12:25 16.3 °C 12.2 °C 1023.2 hPa WNW 3.2 km/h 19.3 km/h 77 % 0.0 mm 782 W/m2
12:30 16.8 °C 12.8 °C 1023.2 hPa North 11.3 km/h 19.3 km/h 77 % 0.0 mm 803 W/m2
12:40 16.8 °C 13.2 °C 1023.2 hPa Calm   14.5 km/h 79 % 0.0 mm 784 W/m2
12:45 16.7 °C 12.5 °C 1023.6 hPa WSW 6.4 km/h 19.3 km/h 76 % 0.0 mm 786 W/m2
12:50 16.6 °C 12.9 °C 1023.6 hPa South 6.4 km/h 19.3 km/h 79 % 0.0 mm 817 W/m2
12:55 17.2 °C 13.5 °C 1023.6 hPa Calm   17.7 km/h 79 % 0.0 mm 896 W/m2
13:00 17.5 °C 13.4 °C 1023.6 hPa West 11.3 km/h 16.1 km/h 77 % 0.0 mm 861 W/m2
13:05 17.4 °C 12.7 °C 1023.6 hPa WSW 16.1 km/h 16.1 km/h 74 % 0.0 mm 879 W/m2
13:10 17.3 °C 13.0 °C 1023.6 hPa SSW 4.8 km/h 16.1 km/h 76 % 0.0 mm 918 W/m2
13:15 17.4 °C 13.3 °C 1023.6 hPa West 11.3 km/h 16.1 km/h 77 % 0.0 mm 907 W/m2
13:25 17.0 °C 12.7 °C 1023.6 hPa WSW 8.0 km/h 17.7 km/h 76 % 0.0 mm 904 W/m2
13:30 16.7 °C 12.3 °C 1023.9 hPa WSW 17.7 km/h 19.3 km/h 75 % 0.0 mm 935 W/m2
13:35 16.9 °C 12.9 °C 1023.9 hPa SW 4.8 km/h 19.3 km/h 77 % 0.0 mm 907 W/m2
13:40 16.7 °C 12.2 °C 1023.9 hPa SW 9.7 km/h 19.3 km/h 75 % 0.0 mm 951 W/m2
13:45 16.3 °C 12.1 °C 1023.9 hPa West 8.0 km/h 19.3 km/h 76 % 0.0 mm 874 W/m2
13:50 16.4 °C 12.3 °C 1023.9 hPa SW 8.0 km/h 19.3 km/h 77 % 0.0 mm 889 W/m2
13:55 16.7 °C 12.5 °C 1023.9 hPa WSW 6.4 km/h 19.3 km/h 76 % 0.0 mm 803 W/m2
14:00 17.0 °C 12.5 °C 1023.9 hPa SW 11.3 km/h 19.3 km/h 75 % 0.0 mm 826 W/m2
14:10 17.1 °C 12.6 °C 1023.9 hPa West 4.8 km/h 17.7 km/h 75 % 0.0 mm 916 W/m2
14:15 17.3 °C 13.4 °C 1023.9 hPa SW 6.4 km/h 16.1 km/h 78 % 0.0 mm 947 W/m2
14:20 17.3 °C 12.8 °C 1023.9 hPa WNW 9.7 km/h 16.1 km/h 75 % 0.0 mm 921 W/m2
14:25 17.1 °C 12.8 °C 1023.9 hPa SW 3.2 km/h 19.3 km/h 76 % 0.0 mm 947 W/m2
14:30 17.6 °C 13.5 °C 1023.9 hPa West 16.1 km/h 19.3 km/h 77 % 0.0 mm 914 W/m2
14:35 17.2 °C 13.2 °C 1024.3 hPa West 16.1 km/h 19.3 km/h 77 % 0.0 mm 828 W/m2
14:40 16.9 °C 13.0 °C 1024.3 hPa WSW 11.3 km/h 19.3 km/h 78 % 0.0 mm 904 W/m2
14:45 17.0 °C 12.9 °C 1024.3 hPa SW 6.4 km/h 19.3 km/h 77 % 0.0 mm 904 W/m2
14:55 17.7 °C 13.4 °C 1024.3 hPa WNW 16.1 km/h 16.1 km/h 76 % 0.0 mm 865 W/m2
15:00 17.2 °C 13.1 °C 1024.3 hPa West 9.7 km/h 17.7 km/h 77 % 0.0 mm 842 W/m2
15:05 17.3 °C 13.7 °C 1024.3 hPa SW 1.6 km/h 17.7 km/h 79 % 0.0 mm 881 W/m2
15:10 17.6 °C 13.5 °C 1024.3 hPa SSW 11.3 km/h 17.7 km/h 77 % 0.0 mm 858 W/m2
15:15 17.1 °C 12.8 °C 1024.3 hPa West 6.4 km/h 17.7 km/h 76 % 0.0 mm 851 W/m2
15:20 16.8 °C 12.6 °C 1024.3 hPa WSW 11.3 km/h 20.9 km/h 76 % 0.0 mm 858 W/m2
15:25 17.3 °C 12.6 °C 1024.3 hPa SW 9.7 km/h 20.9 km/h 74 % 0.0 mm 483 W/m2
15:30 16.6 °C 12.5 °C 1024.3 hPa SW 3.2 km/h 17.7 km/h 77 % 0.0 mm 693 W/m2
15:40 17.1 °C 12.6 °C 1024.6 hPa WSW 16.1 km/h 20.9 km/h 75 % 0.0 mm 786 W/m2
15:45 16.8 °C 12.6 °C 1024.6 hPa South 14.5 km/h 20.9 km/h 76 % 0.0 mm 891 W/m2
15:50 17.1 °C 12.8 °C 1024.6 hPa WSW 12.9 km/h 20.9 km/h 76 % 0.0 mm 830 W/m2
15:55 17.1 °C 13.4 °C 1024.6 hPa NW 3.2 km/h 19.3 km/h 79 % 0.0 mm 580 W/m2
16:00 17.2 °C 13.0 °C 1024.6 hPa WSW 14.5 km/h 16.1 km/h 76 % 0.0 mm 557 W/m2
16:05 17.0 °C 12.5 °C 1024.6 hPa WNW 6.4 km/h 14.5 km/h 75 % 0.0 mm 531 W/m2
16:10 17.2 °C 12.9 °C 1024.6 hPa West 12.9 km/h 14.5 km/h 76 % 0.0 mm 856 W/m2
16:15 16.9 °C 12.4 °C 1024.6 hPa WSW 6.4 km/h 16.1 km/h 75 % 0.0 mm 758 W/m2
16:25 16.3 °C 12.1 °C 1024.6 hPa SW 6.4 km/h 16.1 km/h 76 % 0.0 mm 443 W/m2
16:30 16.5 °C 12.6 °C 1024.6 hPa West 8.0 km/h 16.1 km/h 78 % 0.0 mm 577 W/m2
16:35 16.8 °C 12.5 °C 1024.6 hPa WSW 11.3 km/h 14.5 km/h 76 % 0.0 mm 670 W/m2
16:40 16.7 °C 12.2 °C 1024.6 hPa West 8.0 km/h 14.5 km/h 75 % 0.0 mm 670 W/m2
16:45 16.6 °C 12.4 °C 1024.6 hPa NW 6.4 km/h 17.7 km/h 76 % 0.0 mm 364 W/m2
16:50 16.3 °C 12.2 °C 1024.6 hPa West 8.0 km/h 17.7 km/h 77 % 0.0 mm 383 W/m2
16:55 16.2 °C 11.9 °C 1024.6 hPa SSW 3.2 km/h 14.5 km/h 76 % 0.0 mm 406 W/m2
17:00 16.4 °C 12.6 °C 1024.6 hPa WNW 14.5 km/h 14.5 km/h 78 % 0.0 mm 429 W/m2
17:05 16.8 °C 12.7 °C 1024.6 hPa West 4.8 km/h 16.1 km/h 77 % 0.0 mm 429 W/m2
17:10 16.8 °C 12.5 °C 1024.6 hPa West 9.7 km/h 16.1 km/h 76 % 0.0 mm 654 W/m2
17:15 16.9 °C 12.6 °C 1024.6 hPa WSW 11.3 km/h 14.5 km/h 76 % 0.0 mm 476 W/m2
17:20 16.4 °C 11.9 °C 1024.6 hPa West 8.0 km/h 16.1 km/h 75 % 0.0 mm 313 W/m2
17:25 16.1 °C 12.0 °C 1024.6 hPa WSW 8.0 km/h 16.1 km/h 77 % 0.0 mm 306 W/m2
17:30 16.2 °C 12.2 °C 1024.6 hPa SW 4.8 km/h 16.1 km/h 77 % 0.0 mm 383 W/m2
17:35 16.4 °C 12.5 °C 1024.6 hPa WSW 6.4 km/h 14.5 km/h 78 % 0.0 mm 353 W/m2
17:40 16.2 °C 12.5 °C 1024.6 hPa WNW 6.4 km/h 14.5 km/h 79 % 0.0 mm 476 W/m2
17:45 15.9 °C 11.9 °C 1024.6 hPa SSW 9.7 km/h 16.1 km/h 77 % 0.0 mm 355 W/m2
17:55 16.2 °C 12.3 °C 1024.3 hPa WSW 8.0 km/h 12.9 km/h 78 % 0.0 mm 360 W/m2
18:00 16.1 °C 11.3 °C 1024.3 hPa Calm   12.9 km/h 73 % 0.0 mm 410 W/m2
18:05 16.3 °C 11.9 °C 1024.6 hPa WSW 8.0 km/h 14.5 km/h 75 % 0.0 mm 345 W/m2
18:10 16.2 °C 12.0 °C 1024.3 hPa WSW 8.0 km/h 14.5 km/h 76 % 0.0 mm 202 W/m2
18:15 15.9 °C 11.7 °C 1024.3 hPa West 6.4 km/h 12.9 km/h 76 % 0.0 mm 223 W/m2
18:20 16.1 °C 11.9 °C 1024.6 hPa Calm   12.9 km/h 76 % 0.0 mm 230 W/m2
18:25 16.1 °C 12.1 °C 1024.6 hPa West 11.3 km/h 14.5 km/h 77 % 0.0 mm 244 W/m2
18:30 16.2 °C 12.3 °C 1024.6 hPa SW 6.4 km/h 16.1 km/h 78 % 0.0 mm 290 W/m2
18:40 15.9 °C 11.9 °C 1024.6 hPa WSW 6.4 km/h 14.5 km/h 77 % 0.0 mm 167 W/m2
18:45 15.8 °C 11.9 °C 1024.6 hPa WSW 9.7 km/h 14.5 km/h 78 % 0.0 mm 162 W/m2
18:50 15.8 °C 12.2 °C 1024.6 hPa SW 3.2 km/h 14.5 km/h 79 % 0.0 mm 142 W/m2
18:55 15.8 °C 12.2 °C 1024.6 hPa SW 4.8 km/h 11.3 km/h 79 % 0.0 mm 114 W/m2
19:00 15.7 °C 12.0 °C 1024.6 hPa WSW 8.0 km/h 16.1 km/h 79 % 0.0 mm 130 W/m2
19:05 15.6 °C 12.4 °C 1024.6 hPa WSW 3.2 km/h 16.1 km/h 81 % 0.0 mm 146 W/m2
19:10 15.7 °C 12.2 °C 1024.6 hPa SW 1.6 km/h 14.5 km/h 80 % 0.0 mm 76 W/m2
19:15 15.6 °C 12.3 °C 1024.6 hPa WSW 8.0 km/h 14.5 km/h 81 % 0.0 mm 95 W/m2
19:25 15.4 °C 12.2 °C 1024.9 hPa WNW 6.4 km/h 14.5 km/h 81 % 0.0 mm 98 W/m2
19:30 15.6 °C 12.3 °C 1024.6 hPa SW 1.6 km/h 11.3 km/h 81 % 0.0 mm 230 W/m2
19:35 16.1 °C 12.6 °C 1024.6 hPa SSW 9.7 km/h 11.3 km/h 80 % 0.0 mm 232 W/m2
19:40 16.1 °C 11.3 °C 1024.6 hPa WSW 14.5 km/h 17.7 km/h 73 % 0.0 mm 200 W/m2
19:45 15.8 °C 9.4 °C 1024.6 hPa West 8.0 km/h 17.7 km/h 66 % 0.0 mm 156 W/m2
19:50 15.8 °C 9.9 °C 1024.6 hPa SW 4.8 km/h 14.5 km/h 68 % 0.0 mm 250 W/m2
19:55 16.0 °C 9.9 °C 1024.6 hPa SW 6.4 km/h 12.9 km/h 67 % 0.0 mm 93 W/m2
20:00 15.9 °C 10.4 °C 1024.9 hPa West 3.2 km/h 12.9 km/h 70 % 0.0 mm 171 W/m2
20:10 15.8 °C 11.6 °C 1024.9 hPa SSW 4.8 km/h 11.3 km/h 76 % 0.0 mm 116 W/m2
20:15 15.7 °C 11.0 °C 1024.9 hPa SW 1.6 km/h 9.7 km/h 74 % 0.0 mm 97 W/m2
20:20 15.5 °C 10.5 °C 1024.9 hPa SE 1.6 km/h 11.3 km/h 72 % 0.0 mm 77 W/m2
20:25 15.3 °C 10.5 °C 1024.9 hPa WSW 1.6 km/h 11.3 km/h 73 % 0.0 mm 53 W/m2
20:30 15.2 °C 10.4 °C 1024.9 hPa SSW 4.8 km/h 11.3 km/h 73 % 0.0 mm 62 W/m2
20:35 15.2 °C 10.6 °C 1025.3 hPa SW 3.2 km/h 9.7 km/h 74 % 0.0 mm 63 W/m2
20:40 15.1 °C 10.7 °C 1024.9 hPa WSW 8.0 km/h 9.7 km/h 75 % 0.0 mm 30 W/m2
20:45 15.0 °C 11.0 °C 1024.9 hPa Calm   9.7 km/h 77 % 0.0 mm 23 W/m2
20:50 14.9 °C 11.3 °C 1024.9 hPa West 8.0 km/h 11.3 km/h 79 % 0.0 mm 21 W/m2
20:55 15.0 °C 11.6 °C 1025.3 hPa Calm   11.3 km/h 80 % 0.0 mm 26 W/m2
21:00 15.0 °C 11.6 °C 1025.3 hPa SW 3.2 km/h 11.3 km/h 80 % 0.0 mm 32 W/m2
21:05 14.9 °C 11.5 °C 1025.3 hPa Calm   11.3 km/h 80 % 0.0 mm 21 W/m2
21:10 14.9 °C 11.5 °C 1024.9 hPa SSW 3.2 km/h 6.4 km/h 80 % 0.0 mm 19 W/m2
21:15 14.8 °C 11.2 °C 1024.9 hPa SSW 3.2 km/h 8.0 km/h 79 % 0.0 mm 14 W/m2
21:20 14.7 °C 11.1 °C 1024.9 hPa SSW 6.4 km/h 11.3 km/h 79 % 0.0 mm 11 W/m2
21:25 14.7 °C 11.1 °C 1024.9 hPa SSW 3.2 km/h 11.3 km/h 79 % 0.0 mm 7 W/m2
21:30 14.6 °C 11.1 °C 1024.9 hPa SSW 1.6 km/h 9.7 km/h 80 % 0.0 mm 5 W/m2
21:35 14.3 °C 11.1 °C 1024.9 hPa SSW 3.2 km/h 8.0 km/h 81 % 0.0 mm 0 W/m2
21:40 14.2 °C 11.1 °C 1025.3 hPa Calm   4.8 km/h 82 % 0.0 mm 0 W/m2
21:45 13.8 °C 11.2 °C 1025.3 hPa Calm   3.2 km/h 84 % 0.0 mm 0 W/m2
21:50 13.5 °C 11.0 °C 1025.3 hPa Calm   6.4 km/h 85 % 0.0 mm 0 W/m2
21:55 13.5 °C 11.2 °C 1025.3 hPa Calm   6.4 km/h 86 % 0.0 mm 0 W/m2
22:00 13.6 °C 11.4 °C 1025.3 hPa SSW 1.6 km/h 8.0 km/h 87 % 0.0 mm 0 W/m2
22:05 13.6 °C 11.4 °C 1025.6 hPa SSW 3.2 km/h 8.0 km/h 87 % 0.0 mm 0 W/m2
22:10 13.6 °C 11.7 °C 1025.6 hPa SSW 3.2 km/h 8.0 km/h 88 % 0.0 mm 0 W/m2
22:15 13.6 °C 11.6 °C 1025.6 hPa Calm   8.0 km/h 88 % 0.0 mm 0 W/m2
22:25 13.6 °C 11.8 °C 1025.6 hPa SSW 3.2 km/h 6.4 km/h 89 % 0.0 mm 0 W/m2
22:30 13.6 °C 11.8 °C 1025.6 hPa SSW 4.8 km/h 8.0 km/h 89 % 0.0 mm 0 W/m2
22:35 13.7 °C 12.1 °C 1025.6 hPa SSW 1.6 km/h 11.3 km/h 90 % 0.0 mm 0 W/m2
22:40 13.7 °C 11.9 °C 1025.6 hPa SSW 4.8 km/h 11.3 km/h 89 % 0.0 mm 0 W/m2
22:45 13.6 °C 11.9 °C 1025.6 hPa SSW 4.8 km/h 8.0 km/h 90 % 0.0 mm 0 W/m2
22:50 13.6 °C 11.9 °C 1025.6 hPa SSW 1.6 km/h 6.4 km/h 90 % 0.0 mm 0 W/m2
22:55 13.6 °C 12.0 °C 1025.6 hPa SSW 4.8 km/h 8.0 km/h 90 % 0.0 mm 0 W/m2
23:00 13.6 °C 11.9 °C 1025.6 hPa SSW 4.8 km/h 8.0 km/h 90 % 0.0 mm 0 W/m2
23:10 13.5 °C 11.7 °C 1025.6 hPa SSW 1.6 km/h 8.0 km/h 89 % 0.0 mm 0 W/m2
23:15 13.4 °C 11.6 °C 1025.6 hPa South 4.8 km/h 8.0 km/h 89 % 0.0 mm 0 W/m2
23:20 13.3 °C 11.6 °C 1025.6 hPa SSE 1.6 km/h 9.7 km/h 89 % 0.0 mm 0 W/m2
23:25 13.3 °C 11.5 °C 1026.0 hPa SSW 3.2 km/h 9.7 km/h 89 % 0.0 mm 0 W/m2
23:30 13.2 °C 11.4 °C 1025.6 hPa Calm   8.0 km/h 89 % 0.0 mm 0 W/m2
23:35 13.1 °C 11.5 °C 1025.6 hPa SSW 3.2 km/h 4.8 km/h 90 % 0.0 mm 0 W/m2
23:40 12.9 °C 11.3 °C 1025.6 hPa SSW 1.6 km/h 4.8 km/h 90 % 0.0 mm 0 W/m2
23:45 12.9 °C 11.3 °C 1025.6 hPa SSW 1.6 km/h 4.8 km/h 90 % 0.0 mm 0 W/m2
23:50 12.8 °C 11.2 °C 1025.6 hPa Calm   4.8 km/h 90 % 0.0 mm 0 W/m2
23:55 12.7 °C 11.3 °C 1025.6 hPa Calm   6.4 km/h 91 % 0.0 mm 0 W/m2
Avec l'autorisation de Weather Underground - 1.5 mb